• In Denmark
  • List of Countries
  • For 7 days
  • Water Temperature
  • Satellite Maps
  • Weather Map
  • Weather Widgets
  • user-avatar
    Login

    Hourly Weather Lankaran

    Today, 18 July, Wednesday

    Time Temperature Precipitation Wind Pressure Humidity
    00:00 +18°C° 0 mm 1 mps 631 mmHg 86%
    01:00 +18°C° 0 mm 1 mps 631 mmHg 86%
    02:00 +18°C° 0 mm 1 mps 631 mmHg 86%
    03:00 +18°C° 0 mm 1 mps 631 mmHg 86%
    04:00 +19°C° 0 mm 1 mps 631 mmHg 84%
    05:00 +19°C° 0 mm 1 mps 631 mmHg 82%
    06:00 +19°C° 0 mm 1 mps 631 mmHg 81%
    07:00 +20°C° 0 mm 2 mps 632 mmHg 73%
    08:00 +21°C° 0 mm 2 mps 632 mmHg 65%
    09:00 +24°C° 0 mm 3 mps 632 mmHg 57%
    10:00 +25°C° 0 mm 3 mps 632 mmHg 52%
    11:00 +27°C° 0 mm 3 mps 632 mmHg 47%
    12:00 +28°C° 0 mm 4 mps 632 mmHg 42%
    13:00 +28°C° 0 mm 4 mps 632 mmHg 42%
    14:00 +29°C° 0 mm 4 mps 631 mmHg 43%
    15:00 +29°C° 0 mm 4 mps 631 mmHg 44%
    16:00 +27°C° 0 mm 3 mps 630 mmHg 51%
    17:00 +26°C° 0 mm 3 mps 630 mmHg 59%
    18:00 +24°C° 0 mm 3 mps 629 mmHg 66%
    19:00 +23°C° 0 mm 2 mps 630 mmHg 71%
    20:00 +23°C° 0 mm 2 mps 630 mmHg 76%
    21:00 +22°C° 0 mm 1 mps 630 mmHg 81%
    22:00 +21°C° 0 mm 1 mps 630 mmHg 82%
    23:00 +21°C° 0 mm 1 mps 629 mmHg 83%

    Tomorrow, 19 July, Thursday

    Time Temperature Precipitation Wind Pressure Humidity
    00:00 +20°C° 0 mm 1 mps 629 mmHg 83%
    01:00 +20°C° 0 mm 1 mps 629 mmHg 83%
    02:00 +20°C° 0 mm 1 mps 629 mmHg 82%
    03:00 +20°C° 0 mm 1 mps 629 mmHg 81%
    04:00 +21°C° 0 mm 1 mps 629 mmHg 79%
    05:00 +21°C° 0 mm 1 mps 629 mmHg 76%
    06:00 +22°C° 0 mm 1 mps 630 mmHg 74%
    07:00 +24°C° 0 mm 1 mps 630 mmHg 65%
    08:00 +26°C° 0 mm 2 mps 631 mmHg 56%
    09:00 +28°C° 0 mm 2 mps 631 mmHg 47%
    10:00 +30°C° 0 mm 3 mps 631 mmHg 42%
    11:00 +31°C° 0 mm 3 mps 631 mmHg 36%
    12:00 +34°C° 0 mm 4 mps 631 mmHg 30%
    13:00 +34°C° 0 mm 4 mps 631 mmHg 30%
    14:00 +34°C° 0 mm 4 mps 631 mmHg 30%
    15:00 +35°C° 0 mm 4 mps 630 mmHg 29%
    16:00 +33°C° 0 mm 4 mps 630 mmHg 36%
    17:00 +30°C° 0 mm 3 mps 630 mmHg 43%
    18:00 +29°C° 0 mm 3 mps 629 mmHg 50%
    19:00 +27°C° 0 mm 2 mps 629 mmHg 56%
    20:00 +26°C° 0 mm 1 mps 629 mmHg 63%
    21:00 +24°C° 0 mm 1 mps 630 mmHg 70%
    22:00 +24°C° 0 mm 1 mps 629 mmHg 68%
    23:00 +23°C° 0 mm 1 mps 629 mmHg 66%

    Day after tomorrow, 20 July, Friday

    Time Temperature Precipitation Wind Pressure Humidity
    00:00 +23°C° 0 mm 1 mps 629 mmHg 65%
    01:00 +23°C° 0 mm 1 mps 629 mmHg 65%
    02:00 +22°C° 0 mm 1 mps 629 mmHg 65%
    03:00 +22°C° 0 mm 1 mps 629 mmHg 64%
    04:00 +22°C° 0 mm 1 mps 630 mmHg 63%
    05:00 +23°C° 0 mm 1 mps 630 mmHg 62%
    06:00 +23°C° 0 mm 1 mps 630 mmHg 61%
    07:00 +25°C° 0 mm 1 mps 631 mmHg 54%
    08:00 +27°C° 0 mm 2 mps 631 mmHg 48%
    09:00 +29°C° 0 mm 2 mps 632 mmHg 41%
    10:00 +30°C° 0 mm 3 mps 632 mmHg 38%
    11:00 +33°C° 0 mm 3 mps 632 mmHg 35%
    12:00 +34°C° 0 mm 3 mps 632 mmHg 31%
    13:00 +34°C° 0 mm 4 mps 631 mmHg 32%
    14:00 +34°C° 0 mm 4 mps 631 mmHg 33%
    15:00 +34°C° 0 mm 4 mps 630 mmHg 34%
    16:00 +32°C° 0 mm 4 mps 630 mmHg 40%
    17:00 +29°C° 0 mm 3 mps 630 mmHg 46%
    18:00 +27°C° 0 mm 3 mps 629 mmHg 52%
    19:00 +26°C° 0 mm 2 mps 629 mmHg 58%
    20:00 +25°C° 0 mm 2 mps 629 mmHg 63%
    21:00 +23°C° 0 mm 1 mps 629 mmHg 68%
    22:00 +23°C° 0 mm 1 mps 629 mmHg 68%
    23:00 +23°C° 0 mm 1 mps 629 mmHg 68%

    21 July, Saturday

    Time Temperature Precipitation Wind Pressure Humidity
    00:00 +22°C° 0 mm 1 mps 629 mmHg 67%
    01:00 +22°C° 0 mm 1 mps 628 mmHg 67%
    02:00 +22°C° 0 mm 1 mps 628 mmHg 67%
    03:00 +21°C° 0 mm 1 mps 628 mmHg 67%
    04:00 +22°C° 0 mm 1 mps 628 mmHg 65%
    05:00 +21°C° 0 mm 2 mps 629 mmHg 63%
    06:00 +23°C° 0 mm 2 mps 629 mmHg 61%
    07:00 +24°C° 0 mm 2 mps 630 mmHg 54%
    08:00 +26°C° 0 mm 3 mps 630 mmHg 48%
    09:00 +28°C° 0 mm 3 mps 631 mmHg 42%
    10:00 +29°C° 0 mm 3 mps 631 mmHg 39%
    11:00 +30°C° 0 mm 3 mps 631 mmHg 36%
    12:00 +31°C° 0 mm 3 mps 631 mmHg 34%
    13:00 +32°C° 0 mm 4 mps 631 mmHg 34%
    14:00 +32°C° 0 mm 4 mps 630 mmHg 35%
    15:00 +32°C° 0 mm 4 mps 630 mmHg 36%
    16:00 +29°C° 0 mm 4 mps 630 mmHg 39%
    17:00 +28°C° 0 mm 3 mps 629 mmHg 43%
    18:00 +26°C° 0 mm 3 mps 629 mmHg 46%
    19:00 +25°C° 0 mm 2 mps 629 mmHg 49%
    20:00 +24°C° 0 mm 2 mps 629 mmHg 52%
    21:00 +21°C° 0 mm 2 mps 629 mmHg 55%
    22:00 +21°C° 0 mm 2 mps 629 mmHg 55%
    23:00 +21°C° 0 mm 2 mps 629 mmHg 54%

    22 July, Sunday

    Time Temperature Precipitation Wind Pressure Humidity
    00:00 +20°C° 0 mm 2 mps 629 mmHg 54%
    01:00 +20°C° 0 mm 2 mps 629 mmHg 55%
    02:00 +20°C° 0 mm 2 mps 629 mmHg 55%
    03:00 +20°C° 0 mm 2 mps 629 mmHg 55%
    04:00 +20°C° 0 mm 2 mps 629 mmHg 53%
    05:00 +21°C° 0 mm 2 mps 630 mmHg 52%
    06:00 +21°C° 0 mm 3 mps 630 mmHg 50%
    07:00 +24°C° 0 mm 3 mps 631 mmHg 45%
    08:00 +26°C° 0 mm 3 mps 631 mmHg 40%
    09:00 +27°C° 0 mm 3 mps 632 mmHg 35%
    10:00 +28°C° 0 mm 4 mps 632 mmHg 34%
    11:00 +29°C° 0 mm 4 mps 632 mmHg 32%
    12:00 +30°C° 0 mm 4 mps 632 mmHg 31%
    13:00 +30°C° 0 mm 4 mps 631 mmHg 32%
    14:00 +30°C° 0 mm 4 mps 631 mmHg 33%
    15:00 +30°C° 0 mm 4 mps 630 mmHg 33%
    16:00 +28°C° 0 mm 4 mps 630 mmHg 39%
    17:00 +26°C° 0 mm 4 mps 630 mmHg 45%
    18:00 +25°C° 0 mm 4 mps 629 mmHg 51%
    19:00 +22°C° 0 mm 3 mps 629 mmHg 56%
    20:00 +21°C° 0 mm 2 mps 629 mmHg 61%
    21:00 +20°C° 0 mm 2 mps 629 mmHg 66%
    22:00 +20°C° 0 mm 2 mps 629 mmHg 64%
    23:00 +19°C° 0 mm 2 mps 629 mmHg 62%

    23 July, Monday

    Time Temperature Precipitation Wind Pressure Humidity
    00:00 +19°C° 0 mm 2 mps 629 mmHg 61%
    01:00 +19°C° 0 mm 2 mps 629 mmHg 62%
    02:00 +19°C° 0 mm 2 mps 629 mmHg 62%
    03:00 +19°C° 0 mm 2 mps 629 mmHg 63%
    04:00 +19°C° 0 mm 2 mps 629 mmHg 61%
    05:00 +20°C° 0 mm 2 mps 630 mmHg 59%
    06:00 +20°C° 0 mm 2 mps 630 mmHg 57%
    07:00 +23°C° 0 mm 2 mps 631 mmHg 51%
    08:00 +25°C° 0 mm 3 mps 631 mmHg 44%
    09:00 +27°C° 0 mm 3 mps 632 mmHg 37%
    10:00 +28°C° 0 mm 3 mps 632 mmHg 35%
    11:00 +29°C° 0 mm 3 mps 632 mmHg 33%
    12:00 +30°C° 0 mm 4 mps 632 mmHg 31%
    13:00 +30°C° 0 mm 4 mps 631 mmHg 32%
    14:00 +30°C° 0 mm 4 mps 631 mmHg 32%
    15:00 +30°C° 0 mm 4 mps 631 mmHg 32%
    16:00 +29°C° 0 mm 4 mps 630 mmHg 37%
    17:00 +27°C° 0 mm 3 mps 630 mmHg 41%
    18:00 +26°C° 0 mm 3 mps 630 mmHg 46%
    19:00 +24°C° 0 mm 3 mps 630 mmHg 50%
    20:00 +23°C° 0 mm 2 mps 630 mmHg 54%
    21:00 +20°C° 0 mm 2 mps 630 mmHg 58%
    22:00 +20°C° 0 mm 2 mps 630 mmHg 57%
    23:00 +21°C° 0 mm 1 mps 630 mmHg 56%
    Show more